Regional Weather Roundup
Issued by NWS

Home | Current Version | Previous Version | Text Only | Print | Product List | Glossary On
Versions: 1 2 3 4 5 6 7 8 9 10 11 12 13 14 15 16 17 18 19 20 21 22 23 24 25 26 27 28 29 30 31 32 33 34 35 36 37 38 39 40 41 42 43 44 45 46 47 48 49 50
684
ASUS43 KDMX 170101
RWRIA

WEATHER ROUNDUP FOR IOWA
NATIONAL WEATHER SERVICE DES MOINES IA
700 PM CST TUE JAN 16 2018

NOTE: "FAIR" INDICATES FEW OR NO CLOUDS BELOW 12,000 FEET WITH NO
SIGNIFICANT WEATHER AND/OR OBSTRUCTIONS TO VISIBILITY.

* - THESE STATIONS ARE NOT NWS STATIONS...THUS NOT UNDER NWS
QUALITY CONTROL.  THEY ALSO DO NOT REPORT WEATHER SUCH
AS PRECIPITATION OR FOG.

IAZ001>003-012>014-020>022-031>034-043>046-170200-
   NORTHWEST IOWA

CITY           SKY/WX    TMP DP  RH WIND       PRES   REMARKS
CARROLL *      CLOUDY     0  -4  85 W3        30.66R
CHEROKEE *     CLOUDY     0  -3  85 CALM      30.65S
DENISON *      CLOUDY     3  -2  78 W5        30.67S WCI  -6
LE MARS *      CLOUDY     1  -2  85 S3        30.65F
ORANGE CITY *  CLOUDY     1   0  92 CALM      30.61F
SHELDON *      CLOUDY     0  -4  85 SW5       30.59F WCI -10
SIOUX CITY     CLOUDY     4   0  83 W5        30.68R WCI  -5
SPENCER        CLOUDY    -3  -7  82 SW7       30.62S WCI -16
STORM LAKE *   CLOUDY     0  -4  85 W7        30.61S WCI -13
$$

IAZ055>058-069>071-079>083-090>094-170200-
   SOUTHWEST IOWA

CITY           SKY/WX    TMP DP  RH WIND       PRES   REMARKS
ATLANTIC *     CLOUDY     0  -4  85 CALM      30.68R
AUDUBON *      CLOUDY     0  -6  78 CALM      30.65S
CLARINDA *     CLOUDY     1  -2  85 CALM        N/A
COUNCIL BLFS * CLOUDY     7   3  85 NW5       30.67R WCI  -2
CRESTON *      CLOUDY     0  -4  85 NW7       30.66S WCI -13
HARLAN  *        N/A      0  -4  85 CALM      30.71R
LAMONI         CLEAR      2  -3  80 NW7       30.66S WCI -11
RED OAK *      CLOUDY     0  -4  85 CALM      30.70R
SHENANDOAH *   CLOUDY     1  -2  85 CALM      30.71S
$$

IAZ047>049-059>061-072>074-084-170200-
   CENTRAL IOWA

CITY           SKY/WX    TMP DP  RH WIND       PRES   REMARKS
AMES           CLOUDY    -1  -5  82 W5        30.67S WCI -11
ANKENY *       CLOUDY     1  -2  85 NW5       30.70S WCI  -8
BOONE *        CLOUDY     1  -4  78 W5        30.65R WCI  -8
CHARITON *     CLOUDY     1  -2  85 NW6       30.67R WCI -10
DES MOINES     CLOUDY     2  -3  80 NW5       30.67F WCI  -8
GRINNELL*      CLEAR      2  -1  84 NW13      30.65S WCI -15
KNOXVILLE *    CLOUDY     0  -8  71 W8        30.66S WCI -15
MARSHALLTOWN   PTCLDY     0  -4  83 W9        30.65S WCI -15
NEWTON *       PTCLDY     1  -2  85 NW8       30.67R WCI -12
PELLA *        CLEAR      3  -2  78 NW8       30.69R WCI -10
PERRY *          N/A     -1  -5  84 W7        30.67S WCI -15
$$

IAZ004>006-015-016-023>025-035-036-170200-
   NORTH CENTRAL IOWA

CITY           SKY/WX    TMP DP  RH WIND       PRES   REMARKS
ALGONA *       CLOUDY     0 N/A N/A W5        30.61F WCI -10
CLARION *      CLOUDY    -2  -6  84 W6        30.63F WCI -14
ESTHERVILLE    CLOUDY     0  -4  83 SW7       30.60F WCI -13
MASON CITY     CLOUDY    -1  -6  79 W6        30.62F WCI -13
FOREST CITY *    N/A      0  -6  78 CALM      30.61S
WEBSTER CITY * CLOUDY    -2  -8  78 W7        30.63S WCI -16
IOWA FALLS *     N/A      2  -2  81 W7        30.64S WCI -10
$$

IAZ007>011-017>019-026>030-037>042-050>054-066-170200-
   NORTHEAST IOWA

CITY           SKY/WX    TMP DP  RH WIND       PRES   REMARKS
CEDAR RAPIDS     N/A      5  -2  72 NW10      30.63R WCI -10
CHARLES CITY * CLOUDY     1  -2  85 NW9       30.61F WCI -14
CLINTON *        N/A      7   4  87 W13       30.61R WCI  -9
DECORAH *        N/A      1  -2  85 NW7       30.57S WCI -11
DUBUQUE          N/A      4   0  83 SW6       30.57R WCI  -7
MONTICELLO *     N/A      5   0  78 W7        30.62R WCI  -7
OELWEIN *        N/A      1   0  92 NW7       30.61S WCI -11
WATERLOO         N/A      3  -2  79 W7        30.64S WCI  -9
$$

IAZ064-065-067-068-078-170200-
   EAST CENTRAL IOWA

CITY           SKY/WX    TMP DP  RH WIND       PRES   REMARKS
DAVENPORT        N/A      9   2  73 W12       30.63R WCI  -6
IOWA CITY        N/A      7  -1  70 W8        30.67S WCI  -6
MT. PLEASANT * CLEAR      5   0  78 W8        30.67R WCI  -8
MUSCATINE *      N/A      9   1  72 NW10      30.68R WCI  -6
QUAD CITIES      N/A     10   4  76 W10       30.62R WCI  -4
$$

IAZ062-063-075>077-085>089-095>099-170200-
   SOUTHEAST IOWA

CITY           SKY/WX    TMP DP  RH WIND       PRES   REMARKS
BURLINGTON     CLEAR      5  -2  72 W5        30.65R WCI  -4
FAIRFIELD *    CLEAR      3  -4  72 W9        30.66S WCI -11
FORT MADISON * CLEAR      5   0  78 W8        30.67R WCI  -8
KEOKUK *       CLEAR      5   0  78 NW6       30.67R WCI  -6
OSKALOOSA *      N/A      2  -2  83 NW8       30.67S WCI -12
OTTUMWA        CLEAR      2  -3  80 W8        30.67S WCI -12
WASHINGTON *   CLEAR      3   0  85 W8        30.68R WCI -10
$$

ABBREVIATIONS USED IN REMARKS
   TC - TEMPERATURES IN CELSIUS
  WCI - WIND CHILL INDEX
   HX - HEAT INDEX
  VSB - VISIBILITY
$$





USA.gov is the U.S. government's official web portal to all federal, state and local government web resources and services.